Theta_e
351 350 349 349 350 350 349 349 348 346 349 350 350 349 348 347 346 346 345 344 345 345
351 349 348 348 349 350 351 351 349 348 347 347 349 349 348 346 345 345 346 347 347 346
340 342 346 346 345 345 348 350 351 350 349 347 347 347 347 343 346 345 345 346 345 346
339 340 340 341 343 343 344 345 346 347 349 349 348 344 346 348 345 345 344 346 345 346
336 336 335 336 336 337 338 341 344 346 345 346 348 348 343 345 349 347 346 346 345 344
333 332 331 332 333 334 335 337 338 341 341 343 344 344 343 345 346 347 348 348 346 346
331 330 330 331 332 333 334 335 336 337 339 340 342 344 344 344 343 345 346 347 349 349
331 330 330 330 332 333 333 334 335 336 338 339 340 341 340 342 342 344 345 348 348 348
328 328 328 329 329 330 331 332 332 334 336 337 338 333 331 336 340 343 345 343 346 344
329 327 327 327 326 326 326 327 329 331 334 334 336 330 327 330 337 340 343 344 343 343
327 326 324 323 322 322 323 324 325 328 331 332 334 327 323 325 333 337 340 345 343 342
326 323 322 321 320 321 322 323 323 326 327 330 332 323 319 321 331 333 335 342 344 343
324 321 320 319 318 320 322 324 326 327 331 328 332 323 316 318 330 333 333 336 340 330
320 319 318 317 318 319 321 324 326 327 328 330 330 329 315 312 321 332 333 334 335 336
Wind_Speed
11 7 7 8 8 7 7 7 7 8 9 11 12 12 10 8 7 10 10 13 11 9
7 7 7 8 6 7 7 7 7 8 8 9 10 11 11 8 10 10 11 11 11 10
7 7 6 5 7 7 7 7 8 7 8 8 10 9 11 10 11 11 11 10 12 11
6 6 6 5 6 6 7 7 8 9 8 8 8 8 8 11 12 13 13 13 14 15
6 6 6 6 7 7 7 8 11 9 7 7 8 9 10 12 12 14 15 16 12 14
7 7 7 7 7 7 7 9 9 9 9 9 8 8 9 12 13 15 15 15 15 15
8 7 7 7 7 7 7 9 10 9 10 11 10 10 9 10 12 14 15 16 16 16
10 7 7 7 7 7 7 8 9 10 11 11 11 9 10 11 12 14 16 16 17 18
8 7 7 7 7 7 8 8 8 10 11 12 10 13 15 14 11 13 15 16 15 17
9 8 7 6 6 7 8 8 9 10 10 12 13 15 16 16 11 13 14 15 14 14
10 7 6 6 7 7 6 8 8 9 11 12 12 16 15 15 12 13 13 14 14 16
8 6 6 7 7 7 7 8 9 10 12 12 14 13 14 11 10 12 13 12 12 14
6 7 7 7 7 5 6 9 7 10 10 12 10 11 11 10 8 10 9 9 11 16
6 6 6 6 4 6 9 8 6 6 9 10 8 8 9 7 5 7 7 6 6 6
Wind_Direction
229 229 233 235 231 241 245 242 228 219 228 236 236 231 233 212 222 218 227 226 217 215
245 224 232 244 235 241 242 248 237 228 227 229 234 233 228 221 214 221 226 226 222 219
248 254 258 262 259 252 257 244 251 248 237 234 232 231 225 233 235 227 238 228 223 221
274 263 258 255 266 267 273 264 251 242 243 238 236 229 230 227 231 228 237 228 220 222
262 273 283 283 276 267 268 268 259 248 238 237 227 225 224 233 231 229 233 238 223 229
263 259 254 252 264 280 278 278 269 255 252 246 239 231 224 231 233 232 236 235 234 230
262 259 266 269 263 261 261 269 273 266 258 252 246 235 232 232 235 237 234 235 235 232
262 260 263 263 261 261 260 264 260 263 261 255 247 243 238 237 242 244 240 234 232 233
257 261 263 262 261 264 266 263 265 261 258 260 255 245 235 238 247 252 245 242 230 228
264 263 261 262 270 269 269 267 265 264 259 258 254 245 243 239 247 253 253 244 236 230
266 255 263 273 272 274 265 268 268 271 266 262 261 249 243 243 254 253 252 253 236 232
255 250 264 268 272 279 281 278 273 272 272 264 264 258 255 249 254 250 250 251 241 235
236 237 251 259 274 278 274 274 285 290 292 275 276 277 280 264 250 245 248 249 245 222
257 267 266 276 265 282 286 276 285 294 309 296 275 280 285 278 249 250 243 240 232 215